Regional Weather Roundup
Issued by NWS

Home | Current Version | Previous Version | Text Only | Print | Product List | Glossary On
Versions: 1 2 3 4 5 6 7 8 9 10 11 12 13 14 15 16 17 18 19 20 21 22 23 24 25 26 27 28 29 30 31 32 33 34 35 36 37 38 39 40 41 42 43 44 45 46 47 48 49 50
000
ASUS43 KLSX 190507
RWRMO

WEATHER SUMMARY FOR MISSOURI
NATIONAL WEATHER SERVICE SPRINGFIELD MO
1200 AM CDT SAT AUG 19 2017

NOTE: "FAIR" INDICATES FEW OR NO CLOUDS BELOW 12,000 FEET WITH NO
       SIGNIFICANT WEATHER AND/OR OBSTRUCTIONS TO VISIBILITY.
       CURRENT SKY AND/OR WEATHER CONDITIONS ARE NOT AVAILABLE FOR
       CHILLICOTHE AND FARMINGTON.

MOZ001>031-035>038-043-044-053-054-190600-
...NORTHERN AND WESTERN MISSOURI...

CITY           SKY/WX    TMP DP  RH WIND       PRES   REMARKS
KANSAS CTY INT FAIR      70  66  87 S5        29.94S
KANSAS C DTWN  FAIR      77  70  79 CALM      29.93R
LEE`S SUMMIT   FAIR      74  71  91 SE6       29.95S
ST JOSEPH      FAIR      67  67 100 CALM      29.94R
CHILLICOTHE      N/A     66  66 100 CALM      29.93F
KIRKSVILLE     FAIR      65  64  97 CALM      29.93S FOG

$$
MOZ066>068-077>081-088>096-101>105-190600-
...SOUTHWEST MISSOURI...

CITY           SKY/WX    TMP DP  RH WIND       PRES   REMARKS
SPRINGFIELD    FAIR      69  66  90 S7        29.98S
JOPLIN         FAIR      72  69  90 S6        29.97R
BRANSON          N/A     66  66 100 CALM      30.01S

$$
MOZ032>034-039>042-045>050-055>058-069>072-190600-
...CENTRAL MISSOURI...

CITY           SKY/WX    TMP DP  RH WIND       PRES   REMARKS
COLUMBIA       FAIR      74  70  87 SW9       29.96R
JEFFERSON CITY FAIR      76  73  91 SW9G16    29.93R
ROLLA          FAIR      74  67  78 SW9       29.96F
SEDALIA        CLOUDY    69  68  96 SE10      29.97S
WHITEMAN AFB   FAIR      69  69 100 S7        29.95R
WARRENSBURG    FAIR      68  64  88 CALM      29.94R
OSAGE BEACH    TSTM      71  69  93 NW8       30.00R

$$
MOZ051-052-059>065-190600-
...EAST CENTRAL MISSOURI...

CITY           SKY/WX    TMP DP  RH WIND       PRES   REMARKS
ST LOUIS INTL  FAIR      79  66  64 SW12      29.90F
SPIRIT OF STL  FAIR      75  68  78 NW8       29.90F
ST CHARLES     FAIR      72  68  87 NW9       29.92R

$$
MOZ072>076-082>087-097>100-106>115-190600-
...SOUTH CENTRAL AND SOUTHEAST MISSOURI...

CITY           SKY/WX    TMP DP  RH WIND       PRES   REMARKS
CAPE GIRARDEAU FAIR      72  69  90 S5        29.96S
FARMINGTON     FAIR      68  67  96 CALM      29.98F
POPLAR BLUFF   FAIR      71  70  96 CALM      29.96S
WEST PLAINS    FAIR      73  69  87 SW5       30.00F

$$


USA.gov is the U.S. government's official web portal to all federal, state and local government web resources and services.